User: anonymous   Login
Location: Saddleback Butte
(34.6776°N, 117.8050°W)
Time: 08:09:43
(UTC-07:00)
Language:

Cosmos 1862 Rocket - Orbit

View from above orbital plane
View from above orbital plane
View from above satellite
View from above satellite

Ground track
Ground track

The orbit data is extracted from the following two-line orbital elements,

1 18153U 87055B   15214.54716032  .00000221  00000-0  24111-4 0  9992
2 18153 082.4992 027.1746 0021837 174.5816 185.5639 14.82991882516881
Epoch (UTC): 02 August 2015 13:07:54
Eccentricity: 0.0021837
inclination: 82.4992°
perigee height: 604 km
apogee height: 635 km
right ascension of ascending node: 27.1746°
argument of perigee: 174.5816°
revolutions per day: 14.82991882
mean anomaly at epoch: 185.5639°
orbit number at epoch: 51688

The dashed part of the orbit path shows where the satellite is in the earth's shadow,  

DLR